Location: Montbazon
(47.2835°N, 0.6999°E)
Time: 16:21:49
(UTC+00:00)

FengYun 1-2 T - Pass Details

Date: 08 November 2025
Orbit: 845 x 879 km, 98.8° (Epoch: 12 December)

Event Time Altitude Azimuth Distance (km) Brightness Sun altitude
Rises 04:49:45 0° 14° (NNE) 3,438 7.5 -20.8°
Reaches altitude 10° 04:52:08 10° 15° (NNE) 2,502 6.8 -20.4°
Maximum altitude 04:57:42 89° 102° (ESE) 870 4.2 -19.4°
Drops below altitude 10° 05:03:18 10° 196° (SSW) 2,507 6.5 -18.5°
Sets 05:05:41 0° 197° (SSW) 3,445 7.3 -18.1°
